timestamp,surface_pressure_avg,surface_temp_avg,battery_voltage,lat,long
2021-12-23 00:09:00+00:00,321.0213,4.1,12.57,47.84626,-54.09684
2021-12-23 00:19:00+00:00,323.5013,4.1,12.57,47.84626,-54.09684
2021-12-23 00:29:00+00:00,325.2513,4.1,12.57,47.84626,-54.09684
2021-12-23 00:39:00+00:00,330.3296,4.1,12.57,47.84626,-54.09684
2021-12-23 00:49:00+00:00,332.8264,4.1,12.57,47.84626,-54.09684
2021-12-23 00:59:00+00:00,339.9363,4.14,12.57,47.84626,-54.09684
2021-12-23 01:09:00+00:00,346.0047,4.18,12.57,47.84626,-54.09684
2021-12-23 01:19:00+00:00,344.7679,4.11,12.57,47.84626,-54.09684
2021-12-23 01:29:00+00:00,342.1296,4.1,12.57,47.84626,-54.09684
2021-12-23 01:39:00+00:00,335.8262,4.07,12.57,47.84626,-54.09684
2021-12-23 01:49:00+00:00,334.7046,4.0,12.57,47.84626,-54.09684
2021-12-23 01:59:00+00:00,331.8146,4.0,12.57,47.84626,-54.09684
2021-12-23 02:09:00+00:00,325.8196,4.0,12.57,47.84626,-54.09684
2021-12-23 02:19:00+00:00,324.5013,4.0,12.57,47.84626,-54.09684
2021-12-23 02:29:00+00:00,322.1846,3.8,12.57,47.84626,-54.09684
2021-12-23 02:39:00+00:00,321.3929,3.5,12.57,47.84626,-54.09684
2021-12-23 02:49:00+00:00,322.9097,3.5,12.57,47.84626,-54.09684
2021-12-23 02:59:00+00:00,320.9346,3.55,12.57,47.84626,-54.09684
2021-12-23 03:09:00+00:00,327.0096,3.6,12.57,47.84626,-54.09684
2021-12-23 03:19:01+00:00,333.8663,3.6,12.57,47.84626,-54.09684
2021-12-23 03:29:01+00:00,336.6963,3.68,12.57,47.84626,-54.09684
2021-12-23 03:39:01+00:00,327.0813,3.7,12.57,47.84626,-54.09684
2021-12-23 03:49:01+00:00,319.8347,3.7,12.57,47.84626,-54.09684
2021-12-23 03:59:01+00:00,317.3531,3.7,12.57,47.84626,-54.09684
2021-12-23 04:09:01+00:00,312.703,3.7,12.57,47.84626,-54.09684
2021-12-23 04:19:00+00:00,308.328,3.73,12.57,47.84626,-54.09684
2021-12-23 04:29:00+00:00,308.8846,3.76,12.57,47.84626,-54.09684
2021-12-23 04:39:00+00:00,311.2497,3.76,12.57,47.84626,-54.09684
2021-12-23 04:49:00+00:00,301.2864,3.7,12.57,47.84626,-54.09684
2021-12-23 04:59:00+00:00,287.9264,3.7,12.57,47.84626,-54.09684
2021-12-23 05:09:00+00:00,288.6563,3.73,12.57,47.84626,-54.09684
2021-12-23 05:19:00+00:00,291.8097,3.7,12.57,47.84626,-54.09684
2021-12-23 05:29:00+00:00,280.163,3.7,12.57,47.84626,-54.09684
2021-12-23 05:39:00+00:00,281.9247,3.7,12.57,47.84626,-54.09684
2021-12-23 05:49:00+00:00,286.2764,3.7,12.57,47.84626,-54.09684
2021-12-23 05:59:00+00:00,272.063,3.65,12.57,47.84626,-54.09684
2021-12-23 06:09:00+00:00,255.2964,3.3,12.57,47.84626,-54.09684
2021-12-23 06:19:01+00:00,263.7931,3.37,12.57,47.84626,-54.09684
2021-12-23 06:29:01+00:00,267.6048,3.4,12.57,47.84626,-54.09684
2021-12-23 06:39:01+00:00,258.7464,3.3,12.57,47.84626,-54.09684
2021-12-23 06:49:01+00:00,254.7531,3.3,12.57,47.84626,-54.09684
2021-12-23 06:59:01+00:00,265.1313,3.3,12.57,47.84626,-54.09684
2021-12-23 07:09:01+00:00,256.3297,3.29,12.57,47.84626,-54.09684
2021-12-23 07:19:01+00:00,245.8698,3.09,12.57,47.84626,-54.09684
2021-12-23 07:29:01+00:00,244.5931,2.4,12.57,47.84626,-54.09684
2021-12-23 07:39:01+00:00,249.0364,2.4,12.57,47.84626,-54.09684
2021-12-23 07:49:01+00:00,248.7314,2.6,12.57,47.84626,-54.09684
2021-12-23 07:59:01+00:00,249.3731,2.7,12.57,47.84626,-54.09684
2021-12-23 08:09:01+00:00,255.0831,2.84,12.57,47.84626,-54.09684
2021-12-23 08:19:00+00:00,257.8314,3.0,12.57,47.84626,-54.09684
2021-12-23 08:29:00+00:00,246.6531,3.0,12.57,47.84626,-54.09684
2021-12-23 08:39:00+00:00,247.5914,2.6,12.57,47.84626,-54.09684
2021-12-23 08:49:00+00:00,258.3947,2.8,12.57,47.84626,-54.09684
2021-12-23 08:59:00+00:00,264.1298,2.9,12.57,47.84626,-54.09684
2021-12-23 09:09:00+00:00,271.0298,2.57,12.57,47.84626,-54.09684
2021-12-23 09:19:01+00:00,292.2464,3.05,12.57,47.84626,-54.09684
2021-12-23 09:29:01+00:00,302.1964,3.1,12.57,47.84626,-54.09684
2021-12-23 09:39:01+00:00,300.1481,3.1,12.57,47.84626,-54.09684
2021-12-23 09:49:01+00:00,306.093,3.1,12.57,47.84626,-54.09684
2021-12-23 09:59:01+00:00,320.243,3.1,12.57,47.84626,-54.09684
2021-12-23 10:09:01+00:00,318.163,3.1,12.57,47.84626,-54.09684
2021-12-23 10:19:00+00:00,310.6563,3.0,12.57,47.84626,-54.09684
2021-12-23 10:29:00+00:00,309.8047,3.0,12.57,47.84626,-54.09684
2021-12-23 10:39:00+00:00,316.6346,2.9,12.57,47.84626,-54.09684
2021-12-23 10:49:00+00:00,333.8162,2.8,12.57,47.84626,-54.09684
2021-12-23 10:59:00+00:00,332.9963,2.78,12.57,47.84626,-54.09684
2021-12-23 11:09:00+00:00,332.7897,2.93,12.57,47.84626,-54.09684
2021-12-23 11:19:00+00:00,346.1396,3.0,12.57,47.84626,-54.09684
2021-12-23 11:29:00+00:00,360.843,3.14,12.57,47.84626,-54.09684
2021-12-23 11:39:00+00:00,356.6595,3.26,12.57,47.84626,-54.09684
2021-12-23 11:49:00+00:00,341.6896,3.33,12.57,47.84626,-54.09684
2021-12-23 11:59:00+00:00,356.6396,3.3,12.57,47.84626,-54.09684
2021-12-23 12:09:00+00:00,365.8446,3.26,12.57,47.84626,-54.09684
2021-12-23 12:19:00+00:00,351.6213,3.4,12.57,47.84626,-54.09684
2021-12-23 12:29:00+00:00,354.9963,3.42,12.57,47.84626,-54.09684
2021-12-23 12:39:00+00:00,380.0296,3.4,12.57,47.84626,-54.09684
2021-12-23 12:49:00+00:00,390.2012,3.56,12.57,47.84626,-54.09684
2021-12-23 12:59:00+00:00,373.1712,3.6,12.57,47.84626,-54.09684
2021-12-23 13:09:00+00:00,379.9979,3.6,12.57,47.84626,-54.09684
2021-12-23 13:19:00+00:00,392.7462,3.5,12.57,47.84626,-54.09684
2021-12-23 13:29:00+00:00,381.6545,3.53,12.57,47.84626,-54.09684
2021-12-23 13:39:00+00:00,372.5546,3.6,12.57,47.84626,-54.09684
2021-12-23 13:49:00+00:00,384.0312,3.6,12.57,47.84626,-54.09684
2021-12-23 13:59:00+00:00,387.958,3.6,12.57,47.84626,-54.09684
2021-12-23 14:09:00+00:00,373.6262,3.71,12.57,47.84626,-54.09684
2021-12-23 14:19:01+00:00,372.11300000000006,3.8,12.65,47.84626,-54.09684
2021-12-23 14:29:01+00:00,379.0563,3.8,12.65,47.84626,-54.09684
2021-12-23 14:39:01+00:00,379.4413,3.88,12.65,47.84626,-54.09684
2021-12-23 14:49:01+00:00,374.5262,3.9,12.65,47.84626,-54.09684
2021-12-23 14:59:01+00:00,381.6713,3.9,12.65,47.84626,-54.09684
2021-12-23 15:09:01+00:00,385.6796,3.9,12.65,47.84626,-54.09684
2021-12-23 15:19:00+00:00,380.0829,3.91,12.89,47.84626,-54.09684
2021-12-23 15:29:00+00:00,375.7012,3.99,12.89,47.84626,-54.09684
2021-12-23 15:39:00+00:00,384.8096,4.0,12.89,47.84626,-54.09684
2021-12-23 15:49:00+00:00,382.4429,4.01,12.89,47.84626,-54.09684
2021-12-23 15:59:00+00:00,362.6847,4.08,12.89,47.84626,-54.09684
2021-12-23 16:09:00+00:00,355.0113,4.05,12.89,47.84626,-54.09684
2021-12-23 16:19:01+00:00,357.3962,4.05,12.73,47.84626,-54.09684
2021-12-23 16:29:01+00:00,352.2446,4.05,12.73,47.84626,-54.09684
2021-12-23 16:39:01+00:00,341.4813,4.02,12.73,47.84626,-54.09684
2021-12-23 16:49:01+00:00,338.7913,4.05,12.73,47.84626,-54.09684
2021-12-23 16:59:01+00:00,332.3063,4.06,12.73,47.84626,-54.09684
2021-12-23 17:09:01+00:00,323.0862,4.08,12.73,47.84626,-54.09684
2021-12-23 17:19:01+00:00,324.0496,4.08,12.81,47.84626,-54.09684
2021-12-23 17:29:01+00:00,323.963,4.08,12.81,47.84626,-54.09684
2021-12-23 17:39:01+00:00,316.7681,4.09,12.81,47.84626,-54.09684
2021-12-23 17:49:01+00:00,294.8431,4.09,12.81,47.84626,-54.09684
2021-12-23 17:59:01+00:00,275.3297,4.09,12.81,47.84626,-54.09684
2021-12-23 18:09:01+00:00,262.6215,4.09,12.81,47.84626,-54.09684
2021-12-23 18:19:00+00:00,257.5914,4.09,12.97,47.84626,-54.09684
2021-12-23 18:29:00+00:00,253.7281,4.09,12.97,47.84626,-54.09684
2021-12-23 18:39:00+00:00,246.5181,4.09,12.97,47.84626,-54.09684
2021-12-23 18:49:00+00:00,235.8997,4.1,12.97,47.84626,-54.09684
2021-12-23 18:59:00+00:00,234.3998,4.1,12.97,47.84626,-54.09684
2021-12-23 19:09:00+00:00,233.0048,4.1,12.97,47.84626,-54.09684
2021-12-23 19:19:00+00:00,218.5448,4.1,12.73,47.84626,-54.09684
2021-12-23 19:29:00+00:00,211.0031,4.1,12.73,47.84626,-54.09684
2021-12-23 19:39:00+00:00,218.2714,4.1,12.73,47.84626,-54.09684
2021-12-23 19:49:00+00:00,216.6614,4.1,12.73,47.84626,-54.09684
2021-12-23 19:59:00+00:00,211.1264,4.1,12.73,47.84626,-54.09684
2021-12-23 20:09:00+00:00,211.5481,4.1,12.73,47.84626,-54.09684
2021-12-23 20:19:00+00:00,211.6098,4.1,12.65,47.84626,-54.09684
2021-12-23 20:29:00+00:00,208.0748,4.1,12.65,47.84626,-54.09684
2021-12-23 20:39:00+00:00,214.9214,4.1,12.65,47.84626,-54.09684
2021-12-23 20:49:00+00:00,222.3665,4.1,12.65,47.84626,-54.09684
2021-12-23 20:59:00+00:00,216.9847,4.1,12.65,47.84626,-54.09684
2021-12-23 21:09:00+00:00,215.4764,4.1,12.65,47.84626,-54.09684
2021-12-23 21:19:00+00:00,219.2581,4.1,12.57,47.84626,-54.09684
2021-12-23 21:29:00+00:00,224.1431,4.1,12.57,47.84626,-54.09684
2021-12-23 21:39:00+00:00,230.4514,4.1,12.57,47.84626,-54.09684
2021-12-23 21:49:00+00:00,230.8031,4.1,12.57,47.84626,-54.09684
2021-12-23 21:59:00+00:00,232.7031,4.1,12.57,47.84626,-54.09684
2021-12-23 22:09:00+00:00,234.5031,4.1,12.57,47.84626,-54.09684
2021-12-23 22:19:01+00:00,234.4398,4.1,12.57,47.84626,-54.09684
2021-12-23 22:29:01+00:00,234.0981,4.1,12.57,47.84626,-54.09684
2021-12-23 22:39:01+00:00,236.8714,4.1,12.57,47.84626,-54.09684
2021-12-23 22:49:01+00:00,236.8731,4.1,12.57,47.84626,-54.09684
2021-12-23 22:59:01+00:00,239.8914,4.1,12.57,47.84626,-54.09684
2021-12-23 23:09:01+00:00,245.7264,4.1,12.57,47.84626,-54.09684
2021-12-23 23:19:00+00:00,250.7098,4.1,12.57,47.84626,-54.09684
2021-12-23 23:29:00+00:00,252.7564,4.1,12.57,47.84626,-54.09684
2021-12-23 23:39:00+00:00,258.2497,4.1,12.57,47.84626,-54.09684
2021-12-23 23:49:00+00:00,266.8681,4.1,12.57,47.84626,-54.09684
2021-12-23 23:59:00+00:00,270.8031,4.1,12.57,47.84626,-54.09684
